TimeCST,TemperatureF,Dew PointF,Humidity,Sea Level PressureIn,VisibilityMPH,Wind Direction,Wind SpeedMPH,Gust SpeedMPH,PrecipitationIn,Events,Conditions,WindDirDegrees,DateUTC
12:53 AM,62.1,55.0,78,30.09,10.0,Variable,3.5,-,N/A,,Mostly Cloudy,0,2012-12-01 06:53:00
1:53 AM,62.1,55.0,78,30.09,10.0,Variable,3.5,-,N/A,,Mostly Cloudy,0,2012-12-01 07:53:00
2:00 AM,62.6,55.4,77,30.10,10.0,Variable,3.5,-,N/A,,Mostly Cloudy,0,2012-12-01 08:00:00
2:53 AM,62.1,55.9,80,30.10,10.0,Variable,4.6,-,N/A,,Overcast,0,2012-12-01 08:53:00
3:19 AM,62.6,55.4,77,30.10,10.0,Calm,Calm,-,N/A,,Overcast,0,2012-12-01 09:19:00
3:53 AM,62.1,55.0,78,30.08,10.0,Variable,3.5,-,N/A,,Mostly Cloudy,0,2012-12-01 09:53:00
4:53 AM,62.1,55.0,78,30.08,10.0,Calm,Calm,-,N/A,,Mostly Cloudy,0,2012-12-01 10:53:00
5:53 AM,62.1,55.0,78,30.09,10.0,Variable,3.5,-,N/A,,Mostly Cloudy,0,2012-12-01 11:53:00
6:30 AM,62.6,55.4,77,30.09,10.0,Variable,4.6,-,N/A,,Mostly Cloudy,0,2012-12-01 12:30:00
6:53 AM,61.0,55.0,81,30.09,10.0,Variable,4.6,-,N/A,,Overcast,0,2012-12-01 12:53:00
7:53 AM,62.1,54.0,75,30.09,10.0,Variable,3.5,-,N/A,,Overcast,0,2012-12-01 13:53:00
8:53 AM,62.1,55.0,78,30.10,10.0,Variable,3.5,-,N/A,,Overcast,0,2012-12-01 14:53:00
9:53 AM,63.0,55.9,78,30.09,10.0,SSW,6.9,-,N/A,,Overcast,210,2012-12-01 15:53:00
10:53 AM,64.9,57.0,75,30.08,10.0,SW,5.8,-,N/A,,Overcast,230,2012-12-01 16:53:00
11:53 AM,69.1,57.9,68,30.04,10.0,Variable,3.5,-,N/A,,Overcast,0,2012-12-01 17:53:00
12:44 PM,69.8,59.0,68,30.03,10.0,Variable,5.8,16.1,N/A,,Mostly Cloudy,0,2012-12-01 18:44:00
12:53 PM,70.0,59.0,68,30.01,10.0,SSW,6.9,-,N/A,,Overcast,200,2012-12-01 18:53:00
1:42 PM,69.8,60.8,73,30.01,10.0,Calm,Calm,-,N/A,,Overcast,0,2012-12-01 19:42:00
1:53 PM,70.0,60.1,71,29.99,10.0,SSW,8.1,16.1,N/A,,Overcast,200,2012-12-01 19:53:00
2:53 PM,70.0,60.1,71,29.99,10.0,Variable,5.8,-,N/A,,Overcast,0,2012-12-01 20:53:00
3:53 PM,71.1,60.1,68,29.98,10.0,SSW,8.1,17.3,N/A,,Overcast,210,2012-12-01 21:53:00
4:53 PM,71.1,59.0,66,29.98,10.0,Variable,6.9,-,N/A,,Mostly Cloudy,0,2012-12-01 22:53:00
5:53 PM,70.0,60.1,71,29.98,10.0,Variable,6.9,-,N/A,,Scattered Clouds,0,2012-12-01 23:53:00
6:53 PM,70.0,59.0,68,29.98,10.0,Variable,5.8,-,N/A,,Partly Cloudy,0,2012-12-02 00:53:00
7:53 PM,70.0,59.0,68,29.99,10.0,Variable,5.8,16.1,N/A,,Clear,0,2012-12-02 01:53:00
8:53 PM,70.0,60.1,71,29.99,10.0,South,8.1,18.4,N/A,,Clear,190,2012-12-02 02:53:00
9:53 PM,70.0,60.1,71,30.00,10.0,South,8.1,18.4,N/A,,Scattered Clouds,190,2012-12-02 03:53:00
10:53 PM,69.1,60.1,73,30.01,10.0,Variable,4.6,16.1,N/A,,Mostly Cloudy,0,2012-12-02 04:53:00
11:53 PM,69.1,61.0,75,30.01,10.0,Variable,6.9,-,N/A,,Partly Cloudy,0,2012-12-02 05:53:00